Weather History for Kununurra, WE

Change the Weather History Date:

Sunday, September 8, 2013

  Actual Average Record
Temperature  
Mean Temperature 77 °F -  
Max Temperature 95 °F - - ()
Min Temperature 59 °F - - ()
Cooling Degree Days 12    
Growing Degree Days 27 (Base 50)    
Moisture  
Dew Point 56 °F    
Average Humidity 46    
Maximum Humidity 74    
Minimum Humidity 13    
Precipitation  
Precipitation 0.00 in - - ()
Sea Level Pressure  
Sea Level Pressure 29.94 in    
Wind  
Wind Speed 4 mph ()    
Max Wind Speed 13 mph    
Max Gust Speed -    
Visibility 6.2 miles    
Events      
T = Trace of Precipitation, MM = Missing Value Source: Averaged Metar Reports

Daily Weather History Graph

Daily Weather History Graph

Search for Another Location

Airport:

Trip Planner

Search our weather history database for the weather conditions in past years. The results will help you decide how hot, cold, wet, or windy it might be!

Date:

Astronomy

Sep. 08, 2013 Rise Set
Actual Time 5:26 AM WST 5:19 PM WST
Civil Twilight 5:04 AM WST 5:41 PM WST
Nautical Twilight 4:39 AM WST 6:06 PM WST
Astronomical Twilight 4:14 AM WST 6:31 PM WST
Moon 7:00 AM WST (9/8) 7:45 PM WST (9/8)
Length of Visible Light 12h 37m
Length of Day
11h 53m
Waxing Crescent, 8% of the Moon is Illuminated
Sep 8
Waxing Crescent
Sep 13
First Quarter
Sep 19
Full
Sep 27
Last Quarter
Oct 5
New

Hourly Weather History & Observations

Time (WST) Temp. Heat Index Dew Point Humidity Pressure Visibility Wind Dir Wind Speed Gust Speed Precip Events Conditions
12:00 AM 66 °F - 49 °F 44% 29.94 in - NE 3.5 mph - -  
12:00 AM 66.2 °F - 50.0 °F 56% 29.95 in 6.2 mi NE 3.5 mph - N/A   Unknown
12:30 AM 64.4 °F - 50.0 °F 59% 29.95 in 6.2 mi NNW 4.6 mph - N/A   Unknown
1:00 AM 64.4 °F - 51.8 °F 64% 29.92 in 6.2 mi Calm Calm - N/A   Unknown
1:30 AM 64.4 °F - 51.8 °F 64% 29.92 in 6.2 mi Calm Calm - N/A   Unknown
2:00 AM 66 °F - 54 °F 57% 29.92 in - SSE 2.3 mph - -  
2:00 AM 66.2 °F - 53.6 °F 64% 29.92 in 6.2 mi SSE 2.3 mph - N/A   Unknown
2:30 AM 60.8 °F - 50.0 °F 68% 29.92 in 6.2 mi ENE 3.5 mph - N/A   Unknown
3:00 AM 62 °F - 51 °F 59% 29.94 in - North 4.6 mph - -  
3:00 AM 62.6 °F - 51.8 °F 68% 29.92 in 6.2 mi North 4.6 mph - N/A   Unknown
3:30 AM 62.6 °F - 51.8 °F 68% 29.95 in 6.2 mi North 3.5 mph - N/A   Scattered Clouds
4:00 AM 64.4 °F - 51.8 °F 64% 29.95 in 6.2 mi South 3.5 mph - N/A   Mostly Cloudy
4:30 AM 66.2 °F - 55.4 °F 68% 29.95 in 6.2 mi SSE 5.8 mph - N/A   Mostly Cloudy
5:00 AM 64 °F - 55 °F 65% 29.96 in - Calm Calm - -  
5:00 AM 64.4 °F - 55.4 °F 73% 29.95 in 6.2 mi Calm Calm - N/A   Mostly Cloudy
5:30 AM 66.2 °F - 53.6 °F 64% 29.98 in 6.2 mi ESE 2.3 mph - N/A   Overcast
6:00 AM 68 °F - 53 °F 48% 30.00 in - East 12.7 mph - -  
6:00 AM 68.0 °F - 53.6 °F 60% 29.98 in 6.2 mi East 12.7 mph - N/A   Overcast
6:30 AM 73.4 °F - 53.6 °F 50% 30.01 in 6.2 mi East 5.8 mph - N/A   Mostly Cloudy
7:00 AM 75.2 °F - 57.2 °F 53% 30.01 in 6.2 mi SW 3.5 mph - N/A   Overcast
7:30 AM 78.8 °F - 57.2 °F 47% 30.04 in 6.2 mi NNW 3.5 mph - N/A   Overcast
8:00 AM 81 °F - 57 °F 34% 30.03 in - North 5.8 mph - -  
8:00 AM 80.6 °F 80.8 °F 57.2 °F 45% 30.04 in 6.2 mi North 5.8 mph - N/A   Overcast
8:30 AM 82.4 °F 82.0 °F 57.2 °F 42% 30.04 in 6.2 mi North 8.1 mph - N/A   Mostly Cloudy
9:00 AM 87 °F - 58 °F 27% 30.03 in - NNE 9.2 mph - -  
9:00 AM 87.8 °F 86.5 °F 57.2 °F 35% 30.01 in 6.2 mi NNE 9.2 mph - N/A   Mostly Cloudy
9:30 AM 87.8 °F 86.5 °F 57.2 °F 35% 30.01 in 6.2 mi North 9.2 mph - N/A   Scattered Clouds
10:00 AM 87.8 °F 86.5 °F 57.2 °F 35% 30.01 in 6.2 mi NNW 8.1 mph - N/A   Mostly Cloudy
10:30 AM 87.8 °F 86.5 °F 57.2 °F 35% 29.98 in 6.2 mi North 8.1 mph - N/A   Mostly Cloudy
11:00 AM 90 °F - 55 °F 21% 29.97 in - NE 6.9 mph - -  
11:00 AM 89.6 °F 87.7 °F 55.4 °F 31% 29.98 in 6.2 mi NE 6.9 mph - N/A   Scattered Clouds
11:30 AM 89.6 °F - 50.0 °F 26% 29.95 in 6.2 mi North 5.8 mph - N/A   Mostly Cloudy
12:00 PM 90 °F - 53 °F 18% 29.94 in - WSW 5.8 mph - -  
12:00 PM 89.6 °F - 51.8 °F 27% 29.95 in 6.2 mi WSW 5.8 mph - N/A   Scattered Clouds
12:30 PM 91.4 °F - 51.8 °F 26% 29.92 in 6.2 mi West 5.8 mph - N/A   Scattered Clouds
1:00 PM 91.4 °F - 50.0 °F 24% 29.89 in 6.2 mi SSE 6.9 mph - N/A   Unknown
1:30 PM 91.4 °F - 48.2 °F 23% 29.86 in 6.2 mi SW 5.8 mph - N/A   Unknown
2:00 PM 93.2 °F - 46.4 °F 20% 29.86 in 6.2 mi SSE 5.8 mph - N/A   Unknown
2:30 PM 93.2 °F - 46.4 °F 20% 29.83 in 6.2 mi ESE 6.9 mph - N/A   Unknown
3:00 PM 94 °F - 49 °F 13% 29.84 in - NE 3.5 mph - -  
3:00 PM 95.0 °F - 48.2 °F 20% 29.83 in 6.2 mi NE 3.5 mph - N/A   Unknown
3:30 PM 93.2 °F - 50.0 °F 23% 29.83 in 6.2 mi East 3.5 mph - N/A   Scattered Clouds
4:00 PM 93.2 °F - 46.4 °F 20% 29.83 in 6.2 mi East 8.1 mph - N/A   Unknown
4:30 PM 91.4 °F - 48.2 °F 23% 29.86 in 6.2 mi East 5.8 mph - N/A   Unknown
5:00 PM 90 °F - 51 °F 17% 29.86 in - East 3.5 mph - -  
5:00 PM 89.6 °F - 51.8 °F 27% 29.86 in 6.2 mi East 3.5 mph - N/A   Unknown
5:30 PM 84.2 °F - 51.8 °F 33% 29.86 in 6.2 mi East 5.8 mph - N/A   Scattered Clouds
6:00 PM 83 °F - 62 °F 39% 29.89 in - North 11.5 mph - -  
6:00 PM 84.2 °F 85.0 °F 62.6 °F 48% 29.89 in 6.2 mi North 11.5 mph - N/A   Scattered Clouds
6:30 PM 82.4 °F 83.9 °F 64.4 °F 54% 29.89 in 6.2 mi North 8.1 mph - N/A   Mostly Cloudy
7:00 PM 80.6 °F 82.3 °F 64.4 °F 58% 29.92 in 6.2 mi North 5.8 mph - N/A   Overcast
7:30 PM 80.6 °F 82.3 °F 64.4 °F 58% 29.92 in 6.2 mi NNE 6.9 mph - N/A   Mostly Cloudy
8:00 PM 81 °F - 64 °F 46% 29.94 in - NNE 8.1 mph - -  
8:00 PM 80.6 °F 82.3 °F 64.4 °F 58% 29.92 in 6.2 mi NNE 8.1 mph - N/A   Overcast
8:30 PM 80.6 °F 82.3 °F 64.4 °F 58% 29.95 in 6.2 mi NNE 5.8 mph - N/A   Overcast
9:00 PM 80 °F - 64 °F 49% 29.95 in - North 5.8 mph - -  
9:00 PM 80.6 °F 82.3 °F 64.4 °F 58% 29.95 in 6.2 mi North 5.8 mph - N/A   Overcast
9:30 PM 78.8 °F - 64.4 °F 61% 29.95 in 6.2 mi NNE 4.6 mph - N/A   Overcast
10:00 PM 78.8 °F - 64.4 °F 61% 29.95 in 6.2 mi NNE 1.2 mph - N/A   Overcast
10:30 PM 77.0 °F - 66.2 °F 69% 29.95 in 6.2 mi Calm Calm - N/A   Overcast
11:00 PM 78 °F - 67 °F 62% 29.96 in - Calm Calm - -  
11:00 PM 78.8 °F - 68.0 °F 69% 29.95 in 6.2 mi Calm Calm - N/A   Overcast
11:30 PM 77.0 °F - 68.0 °F 74% 29.95 in 6.2 mi Calm Calm - N/A   Overcast